• In Hungary
  • List of Countries
  • For 7 days
  • Water Temperature
  • Satellite Maps
  • Weather Map
  • News
  • Weather Widgets
  • user-avatar
    Login

    Hourly Weather Leuven

    Today, 20 October, Friday

    Time Temperature Precipitation Wind Pressure Humidity
    00:00 +17°C° 0 mm 4 mps 750 mmHg 68%
    01:00 +16°C° 0.1 mm 5 mps 750 mmHg 71%
    02:00 +15°C° 0.1 mm 5 mps 750 mmHg 73%
    03:00 +15°C° 0.1 mm 6 mps 750 mmHg 76%
    04:00 +15°C° 0.1 mm 6 mps 750 mmHg 79%
    05:00 +14°C° 0.1 mm 6 mps 751 mmHg 81%
    06:00 +14°C° 0.1 mm 6 mps 751 mmHg 84%
    07:00 +14°C° 0.1 mm 7 mps 751 mmHg 79%
    08:00 +13°C° 0.1 mm 8 mps 751 mmHg 75%
    09:00 +13°C° 0.1 mm 8 mps 752 mmHg 71%
    10:00 +13°C° 0.1 mm 8 mps 752 mmHg 70%
    11:00 +13°C° 0.1 mm 9 mps 752 mmHg 69%
    12:00 +13°C° 0.1 mm 9 mps 753 mmHg 69%
    13:00 +13°C° 0 mm 8 mps 753 mmHg 68%
    14:00 +13°C° 0 mm 8 mps 753 mmHg 68%
    15:00 +13°C° 0 mm 8 mps 754 mmHg 68%
    16:00 +12°C° 0 mm 7 mps 754 mmHg 69%
    17:00 +11°C° 0 mm 6 mps 754 mmHg 71%
    18:00 +12°C° 0 mm 5 mps 755 mmHg 72%
    19:00 +11°C° 0 mm 4 mps 755 mmHg 74%
    20:00 +11°C° 0 mm 4 mps 755 mmHg 77%
    21:00 +10°C° 0 mm 3 mps 755 mmHg 79%
    22:00 +10°C° 0 mm 4 mps 755 mmHg 78%
    23:00 +11°C° 0 mm 4 mps 755 mmHg 77%

    Tomorrow, 21 October, Saturday

    Time Temperature Precipitation Wind Pressure Humidity
    00:00 +11°C° 0 mm 4 mps 755 mmHg 76%
    01:00 +12°C° 0 mm 4 mps 754 mmHg 75%
    02:00 +12°C° 0 mm 5 mps 754 mmHg 75%
    03:00 +12°C° 0 mm 5 mps 753 mmHg 75%
    04:00 +13°C° 0.1 mm 6 mps 753 mmHg 78%
    05:00 +13°C° 0.1 mm 6 mps 753 mmHg 81%
    06:00 +12°C° 0.1 mm 7 mps 752 mmHg 84%
    07:00 +14°C° 0.3 mm 7 mps 753 mmHg 85%
    08:00 +14°C° 0.3 mm 7 mps 753 mmHg 85%
    09:00 +15°C° 0.3 mm 6 mps 753 mmHg 86%
    10:00 +15°C° 0.1 mm 7 mps 753 mmHg 81%
    11:00 +15°C° 0.1 mm 7 mps 753 mmHg 75%
    12:00 +16°C° 0.1 mm 7 mps 753 mmHg 70%
    13:00 +16°C° 0 mm 7 mps 753 mmHg 67%
    14:00 +16°C° 0 mm 7 mps 753 mmHg 64%
    15:00 +15°C° 0 mm 7 mps 753 mmHg 61%
    16:00 +14°C° 0 mm 6 mps 753 mmHg 62%
    17:00 +13°C° 0 mm 6 mps 753 mmHg 64%
    18:00 +11°C° 0 mm 6 mps 753 mmHg 66%
    19:00 +11°C° 0 mm 6 mps 753 mmHg 66%
    20:00 +11°C° 0 mm 7 mps 753 mmHg 66%
    21:00 +11°C° 0 mm 7 mps 753 mmHg 66%
    22:00 +10°C° 0 mm 8 mps 753 mmHg 67%
    23:00 +10°C° 0 mm 8 mps 753 mmHg 68%

    Day after tomorrow, 22 October, Sunday

    Time Temperature Precipitation Wind Pressure Humidity
    00:00 +10°C° 0 mm 8 mps 753 mmHg 69%
    01:00 +10°C° 0 mm 8 mps 753 mmHg 70%
    02:00 +9°C° 0 mm 8 mps 753 mmHg 70%
    03:00 +9°C° 0 mm 8 mps 753 mmHg 71%
    04:00 +9°C° 0.1 mm 8 mps 753 mmHg 72%
    05:00 +9°C° 0.1 mm 8 mps 753 mmHg 73%
    06:00 +9°C° 0.1 mm 8 mps 753 mmHg 74%
    07:00 +9°C° 0.1 mm 8 mps 753 mmHg 75%
    08:00 +10°C° 0.1 mm 8 mps 753 mmHg 75%
    09:00 +10°C° 0.1 mm 8 mps 754 mmHg 75%
    10:00 +10°C° 0.2 mm 8 mps 754 mmHg 74%
    11:00 +10°C° 0.2 mm 8 mps 754 mmHg 73%
    12:00 +11°C° 0.2 mm 7 mps 754 mmHg 72%
    13:00 +11°C° 0.2 mm 7 mps 754 mmHg 71%
    14:00 +11°C° 0.2 mm 7 mps 754 mmHg 71%
    15:00 +10°C° 0.2 mm 7 mps 755 mmHg 70%
    16:00 +10°C° 0.1 mm 6 mps 755 mmHg 72%
    17:00 +9°C° 0.1 mm 6 mps 755 mmHg 75%
    18:00 +9°C° 0.1 mm 5 mps 755 mmHg 77%
    19:00 +9°C° 0.8 mm 6 mps 755 mmHg 80%
    20:00 +9°C° 0.8 mm 6 mps 755 mmHg 83%
    21:00 +9°C° 0.8 mm 7 mps 755 mmHg 86%
    22:00 +9°C° 0.4 mm 7 mps 755 mmHg 84%
    23:00 +9°C° 0.4 mm 6 mps 755 mmHg 83%

    23 October, Monday

    Time Temperature Precipitation Wind Pressure Humidity
    00:00 +9°C° 0.4 mm 6 mps 755 mmHg 81%
    01:00 +9°C° 0 mm 6 mps 755 mmHg 81%
    02:00 +9°C° 0 mm 6 mps 756 mmHg 82%
    03:00 +9°C° 0 mm 6 mps 756 mmHg 82%
    04:00 +9°C° 0 mm 5 mps 756 mmHg 83%
    05:00 +9°C° 0 mm 5 mps 756 mmHg 83%
    06:00 +9°C° 0 mm 5 mps 757 mmHg 84%
    07:00 +9°C° 0 mm 5 mps 757 mmHg 84%
    08:00 +10°C° 0 mm 5 mps 757 mmHg 84%
    09:00 +10°C° 0 mm 5 mps 757 mmHg 84%
    10:00 +12°C° 0.5 mm 5 mps 757 mmHg 86%
    11:00 +12°C° 0.5 mm 5 mps 757 mmHg 87%
    12:00 +11°C° 0.5 mm 6 mps 757 mmHg 89%
    13:00 +12°C° 0.9 mm 5 mps 757 mmHg 90%
    14:00 +12°C° 0.9 mm 5 mps 757 mmHg 91%
    15:00 +12°C° 0.9 mm 5 mps 757 mmHg 92%
    16:00 +12°C° 0.8 mm 5 mps 757 mmHg 93%
    17:00 +12°C° 0.8 mm 5 mps 757 mmHg 93%
    18:00 +13°C° 0.8 mm 5 mps 757 mmHg 93%
    19:00 +13°C° 0.3 mm 4 mps 757 mmHg 94%
    20:00 +13°C° 0.3 mm 4 mps 757 mmHg 95%
    21:00 +13°C° 0.3 mm 3 mps 758 mmHg 96%
    22:00 +14°C° 0.1 mm 3 mps 758 mmHg 96%
    23:00 +14°C° 0.1 mm 3 mps 758 mmHg 96%

    24 October, Tuesday

    Time Temperature Precipitation Wind Pressure Humidity
    00:00 +14°C° 0.1 mm 3 mps 758 mmHg 96%
    01:00 +14°C° 0 mm 3 mps 759 mmHg 96%
    02:00 +13°C° 0 mm 3 mps 759 mmHg 96%
    03:00 +13°C° 0 mm 3 mps 759 mmHg 96%
    04:00 +13°C° 0 mm 3 mps 759 mmHg 96%
    05:00 +13°C° 0 mm 3 mps 760 mmHg 97%
    06:00 +14°C° 0 mm 2 mps 760 mmHg 97%
    07:00 +13°C° 0 mm 3 mps 760 mmHg 95%
    08:00 +14°C° 0 mm 3 mps 760 mmHg 94%
    09:00 +15°C° 0 mm 4 mps 760 mmHg 92%
    10:00 +15°C° 0.1 mm 4 mps 760 mmHg 91%
    11:00 +17°C° 0.1 mm 4 mps 760 mmHg 90%
    12:00 +17°C° 0.1 mm 4 mps 760 mmHg 89%
    13:00 +17°C° 0.1 mm 4 mps 760 mmHg 89%
    14:00 +17°C° 0.1 mm 4 mps 760 mmHg 90%
    15:00 +17°C° 0.1 mm 4 mps 760 mmHg 91%
    16:00 +17°C° 0 mm 4 mps 760 mmHg 91%
    17:00 +15°C° 0 mm 4 mps 760 mmHg 92%
    18:00 +15°C° 0 mm 4 mps 760 mmHg 93%
    19:00 +15°C° 0 mm 4 mps 761 mmHg 94%
    20:00 +15°C° 0 mm 4 mps 761 mmHg 94%
    21:00 +15°C° 0 mm 4 mps 761 mmHg 95%
    22:00 +15°C° 0 mm 4 mps 761 mmHg 95%
    23:00 +15°C° 0 mm 4 mps 761 mmHg 95%

    25 October, Wednesday

    Time Temperature Precipitation Wind Pressure Humidity
    00:00 +14°C° 0 mm 4 mps 762 mmHg 95%
    01:00 +14°C° 0 mm 4 mps 762 mmHg 95%
    02:00 +14°C° 0 mm 4 mps 762 mmHg 95%
    03:00 +14°C° 0 mm 3 mps 762 mmHg 95%
    04:00 +13°C° 0 mm 3 mps 762 mmHg 96%
    05:00 +13°C° 0 mm 3 mps 762 mmHg 96%
    06:00 +12°C° 0 mm 3 mps 762 mmHg 96%
    07:00 +13°C° 0 mm 3 mps 763 mmHg 94%
    08:00 +14°C° 0 mm 3 mps 763 mmHg 91%
    09:00 +16°C° 0 mm 3 mps 763 mmHg 88%
    10:00 +17°C° 0 mm 3 mps 763 mmHg 84%
    11:00 +18°C° 0 mm 3 mps 763 mmHg 81%
    12:00 +19°C° 0 mm 3 mps 763 mmHg 77%
    13:00 +19°C° 0 mm 3 mps 763 mmHg 78%
    14:00 +19°C° 0 mm 3 mps 762 mmHg 80%
    15:00 +18°C° 0 mm 3 mps 762 mmHg 81%
    16:00 +17°C° 0 mm 3 mps 762 mmHg 85%
    17:00 +16°C° 0 mm 3 mps 762 mmHg 89%
    18:00 +14°C° 0 mm 3 mps 762 mmHg 93%
    19:00 +14°C° 0 mm 3 mps 762 mmHg 93%
    20:00 +14°C° 0 mm 3 mps 762 mmHg 93%
    21:00 +14°C° 0 mm 3 mps 762 mmHg 93%
    22:00 +14°C° 0 mm 3 mps 762 mmHg 91%
    23:00 +14°C° 0 mm 3 mps 762 mmHg 90%
    Show more